• Join FlightAware (Why Join?)
  • Login
  • US Flag GB Flag 
08:08 EDT


 

Airport Tracker/Info


-or-


 

Live Flight TrackerFlight Track Log ✈ UPS1121 ✈ 30-Apr-2013 ✈ KBDL - KPHL

Flight Track Log - Related Links

Times and Time Zones

All times are in EDT time to prevent confusion due to time zone crossing. See the UPS1121 flight status page for this flight to view local times or setup timezone preferences in your user account.

Time Position Orientation Groundspeed Altitude Reporting Facility
EDT Latitude Longitude Course Direction KTS MPH feet Rate Location/Type
22:12 41.9081 -72.7358 203° Southwest 157 181 2,400  Level Boston Center
22:13 41.8603 -72.7633 203° Southwest 213 245 4,900 2,520 Climbing Boston Center
22:18 41.3810 -72.6390 203° Southwest 399 459 19,500 2,280 Climbing FlightAware
22:19 41.2800 -72.6750 195° South 399 459 20,000 300 Climbing FlightAware
22:20 41.2150 -72.6980 195° South 395 455 20,000  Level FlightAware
22:21 41.1330 -72.7270 195° South 394 453 20,000  Level FlightAware
22:21 41.0620 -72.7520 195° South 395 455 20,000  Level FlightAware
22:22 40.9970 -72.7970 208° Southwest 392 451 20,000  Level FlightAware
22:22 40.9716 -72.8358 229° Southwest 390 449 20,000  Level FlightAware ADS-B
22:23 40.9460 -72.8814 233° Southwest 392 451 20,000  Level FlightAware ADS-B
22:23 40.9318 -72.9005 225° Southwest 394 453 20,000  Level FlightAware ADS-B
22:23 40.9014 -72.9310 217° Southwest 396 456 20,000  Level FlightAware ADS-B
22:23 40.8860 -72.9424 209° Southwest 397 457 20,000  Level FlightAware ADS-B
22:24 40.8344 -72.9749 205° Southwest 396 456 20,000  Level FlightAware ADS-B
22:24 40.7846 -73.0050 205° Southwest 395 455 20,000  Level FlightAware ADS-B
22:25 40.7336 -73.0358 205° Southwest 395 455 20,000  Level FlightAware ADS-B
22:25 40.6838 -73.0658 205° Southwest 394 453 20,000  Level FlightAware ADS-B
22:26 40.6326 -73.0968 205° Southwest 394 453 20,000  Level FlightAware ADS-B
22:26 40.5809 -73.1285 205° Southwest 393 452 20,000  Level FlightAware ADS-B
22:27 40.5360 -73.1570 206° Southwest 394 453 20,000  Level FlightAware
22:27 40.5299 -73.1602 202° Southwest 394 453 20,000  Level FlightAware ADS-B
22:28 40.4783 -73.1922 205° Southwest 394 453 20,000  Level FlightAware ADS-B
22:28 40.4273 -73.2237 205° Southwest 393 452 20,000  Level FlightAware ADS-B
22:29 40.3766 -73.2548 205° Southwest 394 453 20,000  Level FlightAware ADS-B
22:29 40.3238 -73.2871 205° Southwest 394 453 20,000  Level FlightAware ADS-B
22:30 40.2729 -73.3180 205° Southwest 394 453 20,000  Level FlightAware ADS-B
22:30 40.2208 -73.3497 205° Southwest 394 453 20,000  Level FlightAware ADS-B
22:31 40.1695 -73.3807 205° Southwest 395 455 20,000  Level FlightAware ADS-B
22:31 40.1182 -73.4116 205° Southwest 396 456 20,000  Level FlightAware ADS-B
22:32 40.0615 -73.4458 205° Southwest 395 455 20,000  Level FlightAware ADS-B
22:32 40.0105 -73.4766 205° Southwest 396 456 20,000  Level FlightAware ADS-B
22:33 39.9607 -73.5063 205° Southwest 395 455 20,000  Level FlightAware ADS-B
22:33 39.9320 -73.5239 205° Southwest 395 455 20,000  Level FlightAware ADS-B
22:33 39.9147 -73.5370 210° Southwest 394 453 20,000  Level FlightAware ADS-B
22:33 39.9041 -73.5471 216° Southwest 393 452 20,000  Level FlightAware ADS-B
22:33 39.8911 -73.5621 222° Southwest 393 452 20,000  Level FlightAware ADS-B
22:34 39.8791 -73.5790 227° Southwest 392 451 20,000  Level FlightAware ADS-B
22:34 39.8551 -73.6168 230° Southwest 392 451 20,000  Level FlightAware ADS-B
22:35 39.8185 -73.6757 231° Southwest 392 451 20,000  Level FlightAware ADS-B
22:35 39.7833 -73.7321 231° Southwest 392 451 20,000  Level FlightAware ADS-B
22:36 39.7485 -73.7874 231° Southwest 392 451 20,000  Level FlightAware ADS-B
22:36 39.7141 -73.8419 231° Southwest 391 450 20,000 -540 Level FlightAware ADS-B
22:37 39.6793 -73.8967 230° Southwest 390 449 19,500 -1,680 Descending FlightAware ADS-B
22:37 39.6445 -73.9514 230° Southwest 385 443 18,300 -2,700 Descending FlightAware ADS-B
22:38 39.6100 -74.0056 230° Southwest 388 447 16,800 -2,760 Descending FlightAware ADS-B
22:38 39.5746 -74.0611 230° Southwest 386 444 15,500 -2,520 Descending FlightAware ADS-B
22:39 39.5452 -74.1080 231° Southwest 379 436 14,400 -2,400 Descending FlightAware ADS-B
22:39 39.5360 -74.1292 241° Southwest 377 434 14,000 -960 Descending FlightAware ADS-B
22:39 39.5260 -74.2066 261° West 372 428 13,700 -420 Descending FlightAware ADS-B
22:40 39.5270 -74.2670 271° West 369 425 13,600 -240 Descending FlightAware
22:40 39.5272 -74.2762 272° West 367 422 13,600 -2,280 Level FlightAware ADS-B
22:40 39.5287 -74.3422 272° West 360 414 12,400 -2,100 Descending FlightAware ADS-B
22:41 39.5299 -74.4077 271° West 359 413 11,500 -1,380 Descending FlightAware ADS-B
22:42 39.5315 -74.5078 271° West 342 394 10,700 -1,080 Descending FlightAware ADS-B
22:42 39.5325 -74.5714 271° West 320 368 10,100 -1,080 Descending FlightAware ADS-B
22:42 39.5330 -74.6073 271° West 310 357 9,800 -840 Descending FlightAware ADS-B
22:43 39.5335 -74.6383 271° West 299 344 9,600 -420 Descending FlightAware ADS-B
22:43 39.5338 -74.6646 271° West 284 327 9,600 -1,020 Level FlightAware ADS-B
22:43 39.5342 -74.6927 271° West 284 327 9,100 -1,680 Descending FlightAware ADS-B
22:44 39.5346 -74.7204 271° West 287 330 8,700 -780 Descending FlightAware ADS-B
22:44 39.5351 -74.7498 271° West 286 329 8,700  Level FlightAware ADS-B
22:44 39.5356 -74.7768 271° West 285 328 8,700  Level FlightAware ADS-B
22:44 39.5360 -74.7968 271° West 287 330 8,700  Level FlightAware ADS-B
22:45 39.5364 -74.8235 271° West 287 330 8,700  Level FlightAware ADS-B
22:45 39.5366 -74.8502 271° West 288 331 8,700  Level FlightAware ADS-B
22:45 39.5370 -74.8767 271° West 289 333 8,700  Level FlightAware ADS-B
22:45 39.5375 -74.9039 271° West 289 333 8,700  Level FlightAware ADS-B
22:45 39.5379 -74.9202 272° West 289 333 8,700 -480 Level FlightAware ADS-B
22:46 39.5384 -74.9262 276° West 289 333 8,600 -900 Descending FlightAware ADS-B
22:46 39.5392 -74.9330 279° West 288 331 8,600  Level FlightAware ADS-B
22:46 39.5402 -74.9391 282° West 288 331 8,600 -960 Level FlightAware ADS-B
22:46 39.5455 -74.9641 285° West 283 326 8,300 -1,380 Descending FlightAware ADS-B
22:46 39.5514 -74.9891 287° West 281 323 7,900 -1,560 Descending FlightAware ADS-B
22:46 39.5575 -75.0138 288° West 278 320 7,500 -1,620 Descending FlightAware ADS-B
22:47 39.5617 -75.0312 287° West 277 319 7,200 -1,440 Descending FlightAware ADS-B
22:47 39.5675 -75.0553 287° West 275 316 6,900 -1,560 Descending FlightAware ADS-B
22:47 39.5779 -75.0993 287° West 273 314 6,100 -1,620 Descending FlightAware ADS-B
22:48 39.5844 -75.1276 287° West 280 322 5,700 -900 Descending FlightAware ADS-B
22:48 39.5902 -75.1526 287° West 276 318 5,600 -600 Descending FlightAware ADS-B
22:48 39.5960 -75.1764 288° West 272 313 5,400 -1,200 Descending FlightAware ADS-B
22:48 39.6020 -75.2007 288° West 272 313 5,000 -1,800 Descending FlightAware ADS-B
22:49 39.6081 -75.2258 288° West 275 316 4,500 -1,860 Descending FlightAware ADS-B
22:49 39.6147 -75.2520 288° West 276 318 4,000 -1,500 Descending FlightAware ADS-B
22:49 39.6207 -75.2766 288° West 276 318 3,700 -600 Descending FlightAware ADS-B
22:49 39.6264 -75.3005 287° West 277 319 3,700 -360 Level FlightAware ADS-B
22:50 39.6284 -75.3080 289° West 274 315 3,600 -600 Descending FlightAware ADS-B
22:50 39.6315 -75.3166 295° West 269 310 3,600 420 Level FlightAware ADS-B
22:50 39.6361 -75.3260 302° West 259 298 3,700 540 Climbing FlightAware ADS-B
22:50 39.6389 -75.3311 305° West 256 295 3,700 -300 Level FlightAware ADS-B
22:50 39.6497 -75.3506 306° West 242 278 3,600  Descending FlightAware ADS-B
22:50 39.6599 -75.3691 306° West 227 261 3,700 180 Climbing FlightAware ADS-B
22:51 39.6687 -75.3850 306° West 216 249 3,700  Level FlightAware ADS-B
22:51 39.6790 -75.4037 306° West 213 245 3,700 -300 Level FlightAware ADS-B
22:51 39.6830 -75.4096 311° West 210 242 3,600 -600 Descending FlightAware ADS-B
22:51 39.6859 -75.4130 318° Northwest 209 241 3,600 -480 Level FlightAware ADS-B
22:51 39.6929 -75.4200 322° Northwest 207 238 3,500 -1,080 Descending FlightAware ADS-B
22:51 39.7035 -75.4301 324° Northwest 205 236 3,200 -1,260 Descending FlightAware ADS-B
22:52 39.7153 -75.4410 325° Northwest 205 236 2,900 -1,020 Descending FlightAware ADS-B
22:52 39.7268 -75.4518 324° Northwest 207 238 2,700 -600 Descending FlightAware ADS-B
22:52 39.7393 -75.4634 324° Northwest 208 239 2,600  Descending FlightAware ADS-B
22:52 39.7511 -75.4746 324° Northwest 208 239 2,700 360 Climbing FlightAware ADS-B